Hourly Weather Bolshie Pavlovichi

Today, 4 August, Wednesday

Time Temperature Precipitation Wind Pressure Humidity
00:00 +13°C° 0 mm 2 mps 747 mmHg 92%
01:00 +13°C° 0 mm 2 mps 747 mmHg 93%
02:00 +13°C° 0 mm 2 mps 748 mmHg 94%
03:00 +12°C° 0 mm 2 mps 748 mmHg 94%
04:00 +12°C° 0 mm 2 mps 748 mmHg 94%
05:00 +12°C° 0 mm 2 mps 748 mmHg 94%
06:00 +14°C° 0 mm 2 mps 748 mmHg 86%
07:00 +16°C° 0 mm 2 mps 748 mmHg 78%
08:00 +18°C° 0 mm 2 mps 749 mmHg 69%
09:00 +19°C° 0 mm 2 mps 749 mmHg 62%
10:00 +20°C° 0 mm 3 mps 749 mmHg 55%
11:00 +22°C° 0 mm 3 mps 749 mmHg 48%
12:00 +22°C° 0 mm 3 mps 749 mmHg 47%
13:00 +23°C° 0 mm 2 mps 749 mmHg 45%
14:00 +24°C° 0 mm 2 mps 749 mmHg 43%
15:00 +24°C° 0 mm 2 mps 749 mmHg 43%
16:00 +24°C° 0 mm 2 mps 748 mmHg 42%
17:00 +24°C° 0 mm 1 mps 748 mmHg 41%
18:00 +21°C° 0 mm 2 mps 748 mmHg 47%
19:00 +20°C° 0 mm 2 mps 748 mmHg 53%
20:00 +18°C° 0 mm 2 mps 748 mmHg 59%
21:00 +17°C° 0 mm 2 mps 748 mmHg 65%
22:00 +16°C° 0 mm 2 mps 748 mmHg 70%
23:00 +14°C° 0 mm 3 mps 748 mmHg 76%

Tomorrow, 5 August, Thursday

Time Temperature Precipitation Wind Pressure Humidity
00:00 +15°C° 0.3 mm 2 mps 748 mmHg 79%
01:00 +15°C° 0.3 mm 1 mps 747 mmHg 83%
02:00 +15°C° 0.3 mm 1 mps 747 mmHg 87%
03:00 +15°C° 2 mm 1 mps 747 mmHg 90%
04:00 +14°C° 2 mm 2 mps 747 mmHg 93%
05:00 +14°C° 2 mm 2 mps 746 mmHg 97%
06:00 +15°C° 0.6 mm 2 mps 746 mmHg 95%
07:00 +15°C° 0.6 mm 2 mps 746 mmHg 94%
08:00 +16°C° 0.6 mm 2 mps 746 mmHg 93%
09:00 +17°C° 0.1 mm 2 mps 746 mmHg 89%
10:00 +18°C° 0.1 mm 2 mps 746 mmHg 84%
11:00 +19°C° 0.1 mm 2 mps 746 mmHg 79%
12:00 +19°C° 0.3 mm 2 mps 746 mmHg 77%
13:00 +20°C° 0.3 mm 2 mps 746 mmHg 75%
14:00 +20°C° 0.3 mm 3 mps 745 mmHg 72%
15:00 +20°C° 0.1 mm 3 mps 746 mmHg 73%
16:00 +19°C° 0.1 mm 3 mps 746 mmHg 74%
17:00 +19°C° 0.1 mm 3 mps 746 mmHg 74%
18:00 +18°C° 0 mm 3 mps 746 mmHg 79%
19:00 +16°C° 0 mm 3 mps 746 mmHg 84%
20:00 +14°C° 0 mm 3 mps 746 mmHg 89%
21:00 +13°C° 0 mm 3 mps 745 mmHg 92%
22:00 +13°C° 0 mm 3 mps 745 mmHg 95%
23:00 +13°C° 0 mm 2 mps 745 mmHg 97%

Day after tomorrow, 6 August, Friday

Time Temperature Precipitation Wind Pressure Humidity
00:00 +11°C° 0 mm 3 mps 745 mmHg 97%
01:00 +11°C° 0 mm 3 mps 745 mmHg 97%
02:00 +11°C° 0 mm 3 mps 745 mmHg 97%
03:00 +11°C° 0 mm 3 mps 744 mmHg 96%
04:00 +11°C° 0 mm 3 mps 744 mmHg 95%
05:00 +11°C° 0 mm 3 mps 744 mmHg 95%
06:00 +12°C° 0.4 mm 4 mps 743 mmHg 95%
07:00 +12°C° 0.4 mm 4 mps 743 mmHg 95%
08:00 +13°C° 0.4 mm 5 mps 742 mmHg 94%
09:00 +13°C° 1.5 mm 5 mps 742 mmHg 95%
10:00 +14°C° 1.5 mm 5 mps 742 mmHg 96%
11:00 +14°C° 1.5 mm 5 mps 742 mmHg 97%
12:00 +15°C° 0.9 mm 5 mps 741 mmHg 97%
13:00 +15°C° 0.9 mm 5 mps 741 mmHg 97%
14:00 +16°C° 0.9 mm 5 mps 741 mmHg 97%
15:00 +17°C° 1 mm 5 mps 740 mmHg 96%
16:00 +18°C° 1 mm 4 mps 740 mmHg 96%
17:00 +19°C° 1 mm 4 mps 740 mmHg 96%
18:00 +19°C° 1.9 mm 4 mps 740 mmHg 96%
19:00 +19°C° 1.9 mm 4 mps 739 mmHg 97%
20:00 +18°C° 1.9 mm 3 mps 739 mmHg 97%
21:00 +18°C° 0.3 mm 3 mps 739 mmHg 98%
22:00 +18°C° 0.3 mm 3 mps 739 mmHg 98%
23:00 +18°C° 0.3 mm 3 mps 740 mmHg 98%

7 August, Saturday

Time Temperature Precipitation Wind Pressure Humidity
00:00 +18°C° 0 mm 3 mps 740 mmHg 98%
01:00 +17°C° 0 mm 3 mps 740 mmHg 98%
02:00 +17°C° 0 mm 3 mps 740 mmHg 97%
03:00 +16°C° 0 mm 3 mps 740 mmHg 97%
04:00 +15°C° 0 mm 2 mps 741 mmHg 97%
05:00 +14°C° 0 mm 2 mps 741 mmHg 97%
06:00 +15°C° 0 mm 2 mps 741 mmHg 94%
07:00 +16°C° 0 mm 3 mps 741 mmHg 91%
08:00 +16°C° 0 mm 3 mps 741 mmHg 89%
09:00 +17°C° 0 mm 3 mps 742 mmHg 83%
10:00 +18°C° 0 mm 4 mps 742 mmHg 78%
11:00 +19°C° 0 mm 4 mps 743 mmHg 72%
12:00 +20°C° 0 mm 4 mps 743 mmHg 70%
13:00 +20°C° 0 mm 4 mps 743 mmHg 69%
14:00 +20°C° 0 mm 4 mps 743 mmHg 67%
15:00 +19°C° 0 mm 4 mps 743 mmHg 71%
16:00 +19°C° 0 mm 4 mps 743 mmHg 74%
17:00 +18°C° 0 mm 4 mps 744 mmHg 78%
18:00 +17°C° 0 mm 3 mps 744 mmHg 80%
19:00 +17°C° 0 mm 3 mps 744 mmHg 82%
20:00 +16°C° 0 mm 2 mps 744 mmHg 84%
21:00 +16°C° 0 mm 2 mps 744 mmHg 85%
22:00 +16°C° 0 mm 2 mps 745 mmHg 86%
23:00 +16°C° 0 mm 3 mps 745 mmHg 87%

8 August, Sunday

Time Temperature Precipitation Wind Pressure Humidity
00:00 +16°C° 0 mm 3 mps 745 mmHg 88%
01:00 +16°C° 0 mm 3 mps 745 mmHg 89%
02:00 +14°C° 0 mm 3 mps 745 mmHg 90%
03:00 +14°C° 0 mm 3 mps 746 mmHg 91%
04:00 +14°C° 0 mm 3 mps 746 mmHg 92%
05:00 +14°C° 0 mm 3 mps 746 mmHg 92%
06:00 +16°C° 0 mm 3 mps 746 mmHg 89%
07:00 +16°C° 0 mm 3 mps 746 mmHg 86%
08:00 +17°C° 0 mm 3 mps 747 mmHg 83%
09:00 +18°C° 0 mm 3 mps 747 mmHg 76%
10:00 +20°C° 0 mm 3 mps 747 mmHg 69%
11:00 +21°C° 0 mm 3 mps 747 mmHg 62%
12:00 +22°C° 0 mm 3 mps 747 mmHg 56%
13:00 +24°C° 0 mm 3 mps 747 mmHg 51%
14:00 +25°C° 0 mm 3 mps 747 mmHg 45%
15:00 +25°C° 0 mm 3 mps 748 mmHg 47%
16:00 +25°C° 0 mm 3 mps 748 mmHg 49%
17:00 +25°C° 0 mm 2 mps 748 mmHg 51%
18:00 +23°C° 0 mm 2 mps 748 mmHg 57%
19:00 +21°C° 0 mm 1 mps 748 mmHg 63%
20:00 +20°C° 0 mm 1 mps 748 mmHg 70%
21:00 +19°C° 0 mm 1 mps 748 mmHg 70%
22:00 +19°C° 0 mm 1 mps 748 mmHg 71%
23:00 +19°C° 0 mm 1 mps 749 mmHg 71%

9 August, Monday

Time Temperature Precipitation Wind Pressure Humidity
00:00 +18°C° 0 mm 2 mps 749 mmHg 73%
01:00 +17°C° 0 mm 2 mps 749 mmHg 75%
02:00 +17°C° 0 mm 2 mps 749 mmHg 77%
03:00 +17°C° 0 mm 2 mps 749 mmHg 78%
04:00 +17°C° 0 mm 2 mps 748 mmHg 80%
05:00 +16°C° 0 mm 3 mps 748 mmHg 81%
06:00 +18°C° 0 mm 3 mps 748 mmHg 75%
07:00 +20°C° 0 mm 4 mps 748 mmHg 68%
08:00 +22°C° 0 mm 4 mps 748 mmHg 62%
09:00 +23°C° 0 mm 4 mps 748 mmHg 61%
10:00 +25°C° 0 mm 4 mps 749 mmHg 61%
11:00 +26°C° 0 mm 4 mps 749 mmHg 61%
12:00 +25°C° 0.5 mm 4 mps 749 mmHg 67%
13:00 +25°C° 0.5 mm 4 mps 749 mmHg 73%
14:00 +23°C° 0.5 mm 4 mps 749 mmHg 80%
15:00 +23°C° 0.1 mm 4 mps 749 mmHg 77%
16:00 +23°C° 0.1 mm 4 mps 749 mmHg 73%
17:00 +23°C° 0.1 mm 4 mps 750 mmHg 70%
18:00 +21°C° 0 mm 3 mps 750 mmHg 74%
19:00 +20°C° 0 mm 3 mps 750 mmHg 77%
20:00 +19°C° 0 mm 2 mps 751 mmHg 80%
21:00 +18°C° 0 mm 2 mps 751 mmHg 82%
22:00 +17°C° 0 mm 2 mps 751 mmHg 83%
23:00 +17°C° 0 mm 2 mps 751 mmHg 85%
Show more

We Need Your Consent

Meteoprog and our Service Providers may store and access personal data such as cookies, device identifiers or other similar technologies on your device and process such data to personalise content and ads, as well as provide social media features and to analyse the traffic.

  • Store and/or access information on your device

    Cookies, device identifiers or other information can be stored or accessed on your device for the purposes indicated above.

  • Personalised ads and content, ad and content measurement, audience insights, and products development

    Ads and content can be personalised based on a profile. More data can be added to better personalise ads and content. Ad and content performance can be measured. Insights about the audience who saw the ads and content can be derived. Such data can be used to develop or improve user’s experience, systems and software.

By clicking ‘I Agree’ you will allow the use of indicated cookies, device identifiers, web beacons or other similar technologies. Your settings can be changed in the browser on your device.

For certain purposes, legitimate interests may be relied on, rather than consent. You can read more about this in our Privacy and Cookie Policy.